Location: Cahas Mountain Overlook
(37.0833°N, 80.1000°W)
Time: 18:53:37
(UTC-04:00)

SR - Pass Details

Date: 16 February 2026
Orbit: 572 x 849 km, 66.7° (Epoch: 12 March)

Event Time Altitude Azimuth Distance (km) Brightness Sun altitude
Rises 06:16:16 0° 253° (WSW) 2,770 - -10.9°
Reaches altitude 10° 06:19:23 10° 278° (W) 1,892 - -10.3°
Exits shadow 06:20:26 13° 292° (WNW) 1,720 ? -10.1°
Maximum altitude 06:21:43 14° 312° (NW) 1,649 ? -9.9°
Drops below altitude 10° 06:24:05 10° 346° (NNW) 1,943 ? -9.4°
Sets 06:27:23 0° 11° (N) 2,898 ? -8.7°
